This is the latest recevied weather packets stored in our database for station/object F6BIJ-13. If no packets are shown the sender has not sent any weather packets the latest 10 day(s).
| Time | Temp. | Humidity | Pressure | Rain* | Wind** | Luminosity | Snow |
|---|---|---|---|---|---|---|---|
| 1777513717 | 11.11° C | 91% | 1018.9 hPa | 0 mm | - | - | - |
| 1777513357 | 10.56° C | 90% | 1018.8 hPa | 0 mm | - | - | - |
| 1777512996 | 11.67° C | 90% | 1018.9 hPa | 0 mm | - | - | - |
| 1777512277 | 11.11° C | 90% | 1018.9 hPa | 0 mm | - | - | - |
| 1777511917 | 11.11° C | 90% | 1018.8 hPa | 0 mm | - | - | - |
| 1777511557 | 11.67° C | 89% | 1018.8 hPa | 0 mm | - | - | - |
| 1777510837 | 11.67° C | 89% | 1018.7 hPa | 0 mm | - | - | - |
| 1777510476 | 12.22° C | 89% | 1018.6 hPa | 0 mm | - | - | - |
| 1777510117 | 11.67° C | 89% | 1018.7 hPa | 0 mm | - | - | - |
| 1777509757 | 11.67° C | 88% | 1018.6 hPa | 0 mm | - | - | - |
| 1777509397 | 11.67° C | 88% | 1018.6 hPa | 0 mm | - | - | - |
| 1777509037 | 11.67° C | 89% | 1018.5 hPa | 0 mm | - | - | - |
| 1777508677 | 12.22° C | 88% | 1018.5 hPa | 0 mm | - | - | - |
| 1777508317 | 12.22° C | 88% | 1018.6 hPa | 0 mm | - | - | - |
| 1777506877 | 11.67° C | 87% | 1018.3 hPa | 0 mm | - | - | - |
| 1777502917 | 12.78° C | 87% | 1018.1 hPa | 0 mm | - | - | - |
| 1777502556 | 12.78° C | 86% | 1018 hPa | 0 mm | - | - | - |
| 1777502197 | 12.78° C | 85% | 1018 hPa | 0 mm | - | - | - |
| 1777501117 | 13.33° C | 83% | 1017.8 hPa | 0 mm | - | - | - |
| 1777500757 | 13.89° C | 83% | 1017.8 hPa | 0 mm | - | - | - |
| 1777499317 | 13.89° C | 81% | 1017.6 hPa | 0 mm | - | - | - |
| 1777498597 | 14.44° C | 77% | 1017.5 hPa | 0 mm | - | - | - |
| 1777497517 | 15.56° C | 70% | 1017.3 hPa | 0 mm | - | - | - |
| 1777497157 | 16.67° C | 68% | 1017.2 hPa | 0 mm | - | - | - |
| 1777496797 | 16.11° C | 67% | 1017.1 hPa | 0 mm | - | - | - |
* Rain latest 24 hours (hover to see other rain measurements)
** Current wind speed in m/s (hover to see current wind gust speed)